EW9688 Weather Reports


Display with metric or nautical units.
time (UTC)temp
F
wind
direction
speed
MPH
gust
MPH
rain 1hr
in
rain 24hr
in
rain mn
in
humidity
%
barometer
mb
20221005153018 54 48 2.0 3.0 0.00 0.00 0.00 65 1029.6
20221005152018 54 67 1.0 4.0 0.00 0.00 0.00 65 1029.5
20221005151019 54 137 1.0 2.0 0.00 0.00 0.00 67 1029.5
20221005150019 54 22 2.0 2.0 0.00 0.00 0.00 68 1029.5
20221005145019 54 272 2.0 3.0 0.00 0.00 0.00 67 1029.4
20221005144019 54 341 1.0 2.0 0.00 0.00 0.00 68 1029.4
20221005143019 52 0.0 0.0 0.00 0.00 0.00 69 1029.3
20221005142020 51 239 1.0 1.0 0.00 0.00 0.00 73 1029.2
20221005141017 49 271 1.0 2.0 0.00 0.00 0.00 78 1029.2
20221005140017 48 224 1.0 2.0 0.00 0.00 0.00 81 1029.1
20221005135020 46 225 2.0 3.0 0.00 0.00 0.00 83 1029.1
20221005134020 44 253 2.0 3.0 0.00 0.00 0.00 84 1029.0
20221005133021 43 283 1.0 3.0 0.00 0.00 0.00 86 1029.0
20221005132017 43 274 1.0 2.0 0.00 0.00 0.00 86 1028.9
20221005131018 44 216 1.0 2.0 0.00 0.00 0.00 86 1028.9
20221005130018 44 201 1.0 2.0 0.00 0.00 0.00 85 1028.8
20221005125021 45 259 1.0 2.0 0.00 0.00 0.00 84 1028.7
20221005124018 46 223 2.0 2.0 0.00 0.00 0.00 82 1028.6
20221005123018 46 274 2.0 3.0 0.00 0.00 0.00 81 1028.5
20221005122019 47 2 2.0 4.0 0.00 0.00 0.00 81 1028.4
20221005121019 48 340 3.0 4.0 0.00 0.00 0.00 79 1028.3
20221005120039 47 21 2.0 4.0 0.00 0.00 0.00 79 1028.3
20221005115019 47 13 3.0 4.0 0.00 0.00 0.00 79 1028.3
20221005114019 47 352 3.0 4.0 0.00 0.00 0.00 82 1028.3
20221005113040 47 342 2.0 3.0 0.00 0.00 0.00 82 1028.2
20221005112019 47 350 2.0 3.0 0.00 0.00 0.00 82 1028.1
20221005111017 47 349 3.0 4.0 0.00 0.00 0.00 82 1028.1
20221005110017 47 338 2.0 3.0 0.00 0.00 0.00 82 1028.1
20221005105020 47 358 2.0 4.0 0.00 0.00 0.00 83 1028.1
20221005104021 48 261 2.0 3.0 0.00 0.00 0.00 82 1028.0
20221005103038 49 23 2.0 3.0 0.00 0.00 0.00 81 1028.0
20221005102018 49 358 2.0 4.0 0.00 0.00 0.00 80 1027.9
20221005101038 50 4 2.0 3.0 0.00 0.00 0.00 80 1027.9
20221004201206 60 17 3.0 6.0 0.00 0.01 0.00 63 1024.7
20221004194018 60 6 3.0 6.0 0.00 0.01 0.00 63 1024.8
20221004193018 59 32 3.0 4.0 0.00 0.01 0.00 63 1024.9
20221004192018 59 10 2.0 3.0 0.00 0.01 0.00 65 1025.1
20221004191018 59 168 2.0 3.0 0.00 0.01 0.00 64 1025.3
20221004190018 58 16 3.0 7.0 0.00 0.01 0.00 66 1025.4
20221004185038 57 14 2.0 4.0 0.00 0.01 0.00 66 1025.6
20221004184019 58 344 3.0 6.0 0.00 0.01 0.00 63 1025.5
20221004183018 58 26 3.0 6.0 0.00 0.01 0.00 65 1025.6
20221004182019 58 319 2.0 4.0 0.00 0.01 0.00 63 1025.8
20221004181016 57 11 2.0 6.0 0.00 0.01 0.00 67 1025.8
20221004180019 57 117 2.0 4.0 0.00 0.01 0.00 65 1025.9
20221004175019 57 177 2.0 5.0 0.00 0.01 0.00 65 1026.0
20221004174020 56 40 3.0 5.0 0.00 0.01 0.00 67 1026.1
20221004173017 56 123 3.0 6.0 0.00 0.01 0.00 67 1026.2
20221004162021 52 353 3.0 5.0 0.00 0.01 0.00 76 1026.7
20221004161019 51 9 3.0 4.0 0.00 0.01 0.00 75 1026.8
20221004160019 51 6 3.0 4.0 0.00 0.01 0.00 76 1026.8
20221004155018 50 14 3.0 5.0 0.00 0.01 0.00 78 1026.8
20221004154019 51 12 3.0 4.0 0.00 0.01 0.00 77 1026.8